Theta_e
330 332 331 332 332 331 331 331 330 333 333 333 332 330 333 337 334 335 342 343 342 345 347 346 345 346 345 344 345 344 343 343 344 346 344 343 344 344 342 340 341 342 343 342 340 338 338 339 338 337 336 335 335 335 334 333 330 329 328 329 329 330 330 331 332 331 330 331 331 331 329 328 328 329 329 330 331 331 331 331 331 331 330 330 330 329 329
329 332 331 333 333 330 331 332 333 335 335 334 334 334 336 337 337 340 342 342 345 346 346 347 347 345 345 344 343 342 342 343 343 342 341 342 343 343 342 340 340 342 341 339 338 337 337 337 338 337 335 335 335 335 333 330 329 329 329 328 328 328 329 330 330 329 329 329 329 326 324 324 324 325 326 328 330 330 331 331 331 331 331 331 331 330 330
325 331 331 333 334 331 331 334 337 336 335 334 333 334 337 337 336 339 341 342 346 347 346 348 346 344 345 344 343 344 342 342 341 340 340 342 342 341 340 339 338 339 339 338 337 338 337 337 337 336 336 336 335 333 331 329 330 330 329 327 326 326 326 327 327 326 324 323 322 320 319 319 320 320 323 326 328 329 330 331 330 331 331 331 331 331 330
323 329 329 331 333 331 332 335 337 335 334 334 333 335 338 337 335 337 338 341 345 347 347 347 346 345 345 343 343 343 342 340 340 339 340 341 340 339 338 337 337 338 337 337 338 338 337 337 337 336 336 335 332 330 328 326 327 327 326 325 324 323 322 322 321 319 317 317 316 316 317 317 319 321 323 326 328 328 329 330 329 329 329 329 329 330 329
323 327 330 330 328 330 333 337 337 336 336 335 334 337 339 338 338 338 338 340 344 346 347 346 345 344 343 342 341 341 340 339 338 337 338 337 337 336 336 336 337 337 337 337 338 338 337 337 336 335 335 332 327 325 324 324 326 326 324 322 322 320 317 316 315 314 314 316 317 319 320 321 322 324 325 326 327 327 327 328 328 328 328 328 329 329 329
321 326 332 327 324 328 334 341 339 337 337 336 335 338 339 339 339 338 339 341 344 345 345 344 343 342 341 340 339 338 338 337 336 336 336 335 336 336 336 336 336 336 337 337 337 337 336 336 336 334 331 326 323 323 324 326 328 325 322 321 320 317 314 314 314 315 318 320 321 322 324 325 325 326 326 327 327 326 327 327 327 328 328 329 329 329 330
322 326 326 322 325 333 339 338 337 336 335 336 338 341 342 341 341 340 341 343 343 342 343 343 342 341 339 338 337 336 335 335 335 335 334 334 334 334 335 336 336 336 336 336 336 336 335 335 334 331 326 322 323 326 327 328 327 323 321 322 319 317 317 317 317 319 322 323 323 324 325 326 326 326 326 327 327 326 327 327 328 328 328 329 329 329 330
325 323 321 323 331 340 339 336 337 336 336 338 339 342 343 343 343 343 342 342 342 341 341 341 341 339 338 337 336 334 334 333 333 333 332 332 331 332 333 335 335 335 335 335 335 334 334 333 332 329 325 323 326 328 327 327 326 323 324 324 321 320 322 320 320 322 322 322 323 325 326 326 326 326 326 326 326 326 326 327 327 328 327 328 329 329 329
325 320 322 330 336 336 336 338 338 336 337 338 338 340 343 343 342 343 342 341 342 341 340 340 340 339 338 336 335 334 333 332 332 331 331 330 330 330 331 331 332 332 333 333 333 332 332 331 330 327 324 325 328 328 326 327 325 323 325 324 321 322 323 321 321 322 322 322 323 324 324 325 325 325 325 325 325 326 326 326 327 327 327 327 328 327 327
325 321 322 329 331 331 335 339 339 337 336 337 337 340 342 343 342 343 342 342 342 341 340 341 340 339 338 336 334 333 331 331 330 330 330 329 329 330 330 331 330 329 331 332 330 331 331 329 327 325 322 325 327 325 324 326 323 320 323 324 321 321 322 320 321 323 322 322 322 321 322 324 323 322 323 324 325 325 325 325 326 326 326 326 326 326 326
326 322 319 325 331 335 339 340 339 338 337 338 336 336 338 343 343 343 343 343 341 340 340 340 339 339 337 335 333 332 330 330 329 329 329 329 328 328 330 331 329 327 330 331 329 329 329 326 325 323 320 322 324 322 322 324 321 319 322 322 321 320 320 320 321 322 321 321 321 321 322 323 321 319 320 322 324 324 324 324 325 325 325 325 325 325 325
323 321 321 328 335 339 340 338 337 338 337 337 334 332 336 343 342 341 342 342 340 339 338 337 335 335 335 334 332 330 329 329 328 328 328 328 328 328 329 330 328 326 329 329 328 328 327 325 326 323 317 319 323 322 322 323 321 320 320 321 320 319 319 320 320 320 321 320 319 321 322 322 320 320 320 321 322 322 323 323 324 324 323 323 322 322 321
321 322 325 332 337 337 337 337 337 337 336 335 334 334 340 343 341 339 339 338 337 336 334 334 333 332 331 330 330 329 329 329 329 329 329 328 328 328 329 329 328 326 328 328 327 326 325 324 325 320 316 320 323 322 322 322 321 320 320 320 319 319 319 320 320 320 321 320 318 320 322 320 320 320 320 320 321 321 322 322 322 321 320 319 318 318 318
325 327 328 331 336 337 336 336 337 338 337 337 337 339 341 340 338 338 336 335 335 333 332 332 331 330 330 329 328 328 328 328 329 329 329 329 329 329 329 329 327 325 326 327 325 324 323 323 322 319 319 322 323 321 322 321 320 320 320 319 319 319 318 319 319 319 320 319 318 320 321 320 319 320 320 320 320 321 321 320 319 318 317 317 317 317 317
331 331 331 332 336 339 337 337 339 340 339 339 340 339 338 337 335 335 333 333 333 331 331 330 329 329 329 329 328 328 327 328 328 328 329 329 329 328 328 327 326 324 324 324 323 322 322 322 321 320 321 322 321 321 321 320 319 319 319 318 319 319 318 318 318 318 320 319 318 319 319 319 319 320 320 320 320 320 320 319 318 316 316 316 316 316 315
334 332 335 337 339 339 339 338 339 339 339 339 338 336 336 335 333 333 332 331 331 330 329 328 328 327 327 327 328 328 327 327 328 329 329 329 328 328 327 325 324 322 322 322 322 321 321 321 321 321 321 321 320 320 319 318 318 318 318 317 318 318 318 318 317 318 319 318 318 318 319 319 319 320 320 320 320 319 319 318 316 315 315 315 314 314 314
338 337 339 339 338 337 337 338 337 337 336 336 335 334 334 333 332 332 331 329 329 328 327 327 327 327 326 325 327 327 326 327 329 329 329 328 327 326 325 322 322 321 321 321 322 321 321 321 320 321 321 320 320 320 318 317 318 317 317 317 317 317 318 317 316 318 318 317 317 318 319 318 319 319 320 320 319 318 317 316 316 315 315 314 313 313 313
338 338 337 336 336 336 335 335 335 335 334 334 333 332 332 331 331 330 330 329 329 328 327 327 327 326 326 325 325 326 327 328 328 328 327 326 325 324 322 321 320 320 320 321 321 321 321 321 321 320 319 319 319 319 317 317 317 317 317 316 316 317 317 315 316 317 316 315 317 318 318 317 317 318 318 318 318 317 316 316 315 315 314 313 313 312 312
337 336 336 336 335 334 334 333 333 333 332 332 332 331 331 330 329 328 328 327 328 328 327 327 327 327 327 326 324 325 328 328 328 327 325 325 324 321 320 320 320 319 320 320 320 320 320 320 320 319 319 319 319 318 317 317 316 316 316 316 316 317 316 314 315 316 315 315 317 317 317 317 317 316 317 317 316 316 315 315 315 314 313 312 312 311 311
338 337 335 335 334 333 334 333 332 332 332 331 331 330 330 330 328 328 327 326 327 327 326 327 327 326 327 327 326 326 328 327 327 325 324 323 322 320 320 320 318 319 319 319 319 319 319 319 319 319 318 318 318 317 317 317 316 316 316 315 316 316 315 315 315 315 314 315 316 316 316 317 316 316 316 315 314 314 314 314 313 312 311 311 311 310 310
337 336 335 335 334 333 333 332 332 333 331 331 331 330 329 329 328 328 327 326 327 327 326 326 327 326 326 327 326 326 327 326 325 324 323 322 321 319 319 319 318 318 319 318 319 319 319 319 319 318 318 318 318 317 317 316 316 316 315 315 316 315 314 315 315 314 314 315 316 316 316 315 315 316 315 314 314 313 313 313 312 311 311 311 311 310 309
337 336 335 334 334 334 333 332 332 332 331 330 330 329 328 328 327 327 326 326 326 326 325 325 325 325 325 325 325 326 326 325 324 322 321 321 319 318 318 318 317 318 318 318 318 318 318 318 318 317 318 318 317 317 316 316 316 315 315 315 315 314 314 315 314 314 314 315 315 315 315 314 314 315 315 314 314 313 313 312 311 311 311 311 311 310 309
337 336 335 334 335 334 333 332 332 331 330 329 328 328 327 327 326 326 326 326 326 326 325 324 324 324 325 324 325 326 325 324 323 322 320 319 318 318 317 317 317 318 318 318 318 318 318 318 318 317 318 317 316 316 316 316 315 314 314 314 314 314 315 314 313 313 315 315 315 315 314 313 313 314 314 313 313 313 312 312 312 311 311 311 310 310 309
336 335 335 334 334 333 332 332 331 330 329 329 328 328 327 327 326 326 326 326 325 325 324 324 324 324 325 324 325 325 324 323 322 321 320 319 318 317 317 317 317 317 317 317 317 317 317 318 318 317 317 316 315 316 315 316 316 314 313 313 314 314 315 313 311 313 315 314 314 314 313 312 313 313 313 313 312 312 312 312 312 311 310 310 311 310 309
335 334 333 333 332 332 331 331 330 329 329 329 329 328 326 325 325 326 326 326 325 325 324 324 323 324 324 324 324 323 323 322 321 319 319 318 318 317 317 316 316 317 317 317 316 316 318 317 317 317 316 315 315 314 314 315 316 314 312 313 313 314 315 312 310 313 314 313 313 313 311 311 312 313 312 312 312 312 312 311 311 311 310 310 311 310 309
333 332 331 331 330 330 330 331 330 329 328 328 328 327 326 324 324 326 327 326 325 325 325 324 324 324 323 323 322 322 322 321 320 319 319 319 317 317 317 316 316 316 317 317 317 317 318 318 317 317 316 315 315 314 313 315 315 312 312 314 314 314 315 311 309 313 314 312 312 312 311 311 312 312 312 312 311 311 312 311 311 311 310 310 311 310 309
331 330 330 330 330 329 329 330 330 328 327 327 326 326 327 326 326 327 327 327 326 326 325 324 324 324 323 322 322 322 323 322 320 319 319 318 317 317 317 316 316 316 316 318 318 318 318 318 318 317 316 317 317 315 314 315 314 313 313 314 314 315 314 310 310 313 313 311 312 311 310 311 312 311 312 312 311 311 311 311 311 311 310 310 310 310 309
331 332 332 331 331 330 329 329 328 327 327 326 324 324 324 325 325 326 326 326 327 326 325 325 324 323 323 322 322 323 323 322 321 321 319 318 317 317 316 316 315 315 317 319 319 318 318 318 318 318 318 317 317 316 315 315 315 314 314 313 313 314 313 309 310 313 312 311 312 311 310 311 311 310 311 311 311 311 311 310 310 310 310 310 310 310 309
331 331 331 330 330 329 328 328 327 326 326 326 325 324 323 323 323 324 325 325 326 326 324 324 323 323 322 322 322 323 323 321 321 320 319 318 317 317 316 316 316 317 319 319 319 318 318 318 318 318 318 317 316 316 316 314 313 314 315 313 313 314 311 309 311 312 311 311 312 311 311 311 311 310 311 310 310 310 310 310 310 310 310 309 310 310 309
329 329 329 329 328 328 329 328 327 326 325 324 324 324 324 323 323 323 324 325 325 325 324 323 323 323 321 320 321 321 321 320 319 318 318 318 317 316 317 318 317 318 320 319 319 319 319 319 318 318 317 316 316 316 315 312 312 314 314 312 313 313 311 310 311 312 311 311 312 311 311 311 310 310 310 310 310 310 310 309 310 309 309 309 309 309 309
329 329 329 328 327 328 329 328 326 325 325 325 324 324 324 324 324 324 324 325 325 324 323 323 323 322 320 319 319 319 318 318 318 317 317 318 317 317 319 319 318 319 320 320 319 319 318 318 318 317 315 315 315 316 313 311 312 314 313 312 313 313 311 311 311 311 311 312 311 311 311 310 310 310 310 310 310 310 309 309 309 309 309 309 308 309 308
329 328 328 328 327 327 328 327 325 325 325 324 324 324 324 323 323 324 325 325 323 322 323 324 323 321 320 320 319 319 318 318 317 317 317 317 317 318 320 319 319 319 320 320 320 319 318 318 318 315 313 314 316 315 312 310 313 315 313 312 314 313 311 311 312 311 311 311 311 311 311 310 310 310 309 309 310 310 309 309 309 309 309 309 308 308 308
329 329 329 328 326 325 326 326 325 324 323 324 324 324 324 324 324 324 325 325 323 323 324 324 322 321 321 320 318 318 318 317 317 317 317 317 317 318 319 319 319 320 319 320 320 320 320 319 316 313 313 314 316 314 311 310 313 314 312 312 314 313 311 312 312 311 311 311 311 311 311 310 310 310 310 309 310 309 309 309 309 309 309 309 308 308 307
329 329 329 327 325 324 324 324 323 322 323 323 323 323 323 324 324 324 325 325 324 324 324 323 321 321 321 320 318 317 318 317 316 317 318 317 318 319 319 319 320 320 320 320 320 320 321 319 315 313 314 315 315 314 311 309 312 313 311 311 313 313 311 312 312 311 312 312 311 311 311 310 310 311 310 309 309 309 309 309 309 308 308 308 308 308 307
328 327 326 326 325 324 323 322 322 322 323 323 323 323 324 324 324 324 324 325 325 325 324 323 321 321 321 319 317 317 317 317 317 317 317 318 320 320 319 319 320 319 319 319 319 319 321 319 315 314 316 316 315 315 311 308 310 313 312 312 313 313 312 312 312 311 312 312 312 311 311 311 311 311 310 309 309 309 309 308 308 308 308 307 307 307 307
327 327 326 325 325 324 323 323 323 323 323 324 324 324 324 325 325 325 325 325 325 324 324 323 322 321 320 319 318 318 318 318 318 318 318 319 320 320 319 320 320 318 318 319 318 318 320 319 316 315 316 316 315 314 311 308 309 311 313 313 312 312 312 313 312 312 313 312 312 312 311 311 311 311 310 310 310 309 309 309 308 308 308 307 307 307 307
326 326 325 325 324 323 323 324 324 323 323 324 324 324 325 325 325 325 325 324 324 324 324 323 322 321 320 319 318 318 319 319 318 319 319 319 319 320 319 319 320 319 318 318 317 317 319 318 315 315 317 317 315 314 313 312 309 309 311 313 313 312 312 313 312 313 313 312 312 312 312 312 312 312 311 311 310 310 310 309 308 308 308 307 307 307 306
325 325 325 325 324 324 324 324 324 323 324 325 325 325 325 325 325 325 325 324 324 324 324 323 323 322 320 319 318 319 320 320 319 319 319 319 319 319 319 319 319 319 319 319 318 318 319 318 316 316 317 318 316 315 315 313 310 308 310 313 313 312 312 313 313 313 313 313 313 313 313 313 313 312 312 312 311 311 310 310 309 308 308 308 307 307 306
326 326 325 325 324 324 324 324 324 324 325 325 325 325 325 325 326 325 325 324 324 324 324 323 323 322 320 319 319 320 320 320 319 319 319 319 319 318 319 319 319 319 319 319 318 318 318 317 316 317 317 317 317 316 315 313 310 309 311 314 313 312 312 313 313 313 313 313 313 313 313 313 313 313 313 312 312 312 312 311 310 309 309 308 307 307 306
326 325 325 325 324 324 324 324 325 325 325 326 326 325 326 327 327 327 326 326 325 325 325 324 323 321 320 320 320 320 320 320 319 319 319 319 318 318 318 319 319 318 318 317 316 316 317 317 317 317 317 317 316 316 316 314 311 309 311 314 313 312 312 313 313 313 313 313 313 313 313 313 313 313 313 313 312 312 312 312 311 310 309 308 308 307 307
325 325 324 324 324 325 325 326 326 326 326 325 325 325 326 327 327 327 327 327 327 326 326 325 323 322 321 321 320 320 320 320 319 319 319 319 318 318 318 319 318 318 317 316 316 317 318 318 318 318 318 318 317 316 316 315 311 309 311 313 313 312 312 312 313 313 313 313 313 314 314 314 314 313 313 313 313 313 312 312 312 311 310 309 308 308 307
325 324 324 325 325 326 326 326 326 326 326 325 325 326 327 328 328 328 328 328 327 326 326 325 324 322 321 321 321 321 320 320 319 319 318 318 318 318 318 318 318 318 317 317 318 319 319 318 318 318 318 318 317 316 316 314 311 310 312 314 313 312 312 312 312 313 313 313 314 314 314 314 314 313 313 313 313 313 313 312 312 311 311 310 309 308 308
324 324 324 326 327 327 326 326 326 326 326 325 325 326 327 328 328 328 328 328 327 326 325 325 323 321 320 320 321 321 320 320 319 318 318 318 318 318 318 318 318 318 319 318 318 318 318 318 318 317 317 317 316 315 315 313 311 311 313 314 313 313 312 312 313 313 313 314 314 314 314 314 313 313 313 313 313 313 313 312 312 311 311 310 309 309 308
324 325 326 327 327 326 326 326 326 326 326 326 326 325 326 327 328 328 329 329 328 327 325 324 322 321 321 321 321 321 320 320 319 319 318 318 318 318 318 319 318 318 318 318 318 318 318 318 318 317 317 317 316 314 313 311 311 312 313 313 313 313 313 313 313 313 314 314 314 314 314 314 313 313 314 314 314 314 314 313 312 311 311 310 310 309 308
325 325 326 327 327 326 326 326 326 327 327 327 327 326 326 327 328 329 329 329 329 327 325 323 322 322 321 321 321 320 320 320 319 319 319 319 319 319 319 318 318 318 318 317 318 319 319 319 318 317 316 316 316 314 313 312 313 314 313 313 313 313 313 313 313 313 314 314 314 314 314 314 315 315 315 315 315 314 314 313 312 312 311 310 310 309 308
325 326 326 326 326 326 326 326 327 328 328 329 328 327 327 328 328 328 328 329 328 327 325 323 323 322 321 321 321 321 320 320 319 319 318 318 318 318 318 318 318 319 318 318 319 320 319 318 317 317 316 315 315 314 314 314 314 314 314 314 314 313 313 313 313 314 314 314 314 315 315 315 315 315 315 315 314 314 313 312 312 312 311 310 310 309 308
325 326 326 326 326 326 327 328 329 330 330 330 330 329 328 329 329 328 328 328 328 327 325 323 322 322 321 321 321 321 320 320 319 319 318 318 318 318 319 319 319 319 320 320 320 320 319 318 317 316 315 315 315 314 315 315 315 315 314 314 314 313 313 314 314 314 315 315 315 315 315 315 315 315 314 314 314 313 313 313 312 311 311 310 309 308 307
326 326 326 326 326 328 329 330 331 331 330 329 328 328 328 329 329 329 328 328 328 326 324 322 322 322 321 320 320 320 320 320 320 319 319 319 319 320 320 320 320 320 321 321 320 319 318 317 316 315 315 315 315 315 315 316 316 316 315 315 314 314 314 314 315 315 315 315 315 315 315 315 315 314 314 314 314 314 313 312 312 311 310 310 309 308 307
326 326 326 327 328 329 330 330 330 329 328 327 328 328 329 329 328 327 326 327 327 325 323 322 321 321 320 319 319 319 320 320 319 319 319 320 320 320 320 320 320 321 321 320 319 318 317 316 315 315 315 316 316 316 316 317 316 316 315 315 315 315 315 315 315 315 315 314 315 315 315 315 314 314 314 314 314 313 313 312 311 310 310 309 308 308 307
326 326 327 329 329 329 330 330 330 329 329 329 329 329 329 328 327 326 326 326 325 324 322 322 321 321 320 320 320 319 319 319 319 319 319 320 320 320 320 320 320 320 319 319 318 317 316 316 315 315 315 315 316 317 317 317 316 316 316 315 315 315 315 315 315 314 314 314 314 314 314 314 314 314 314 314 313 312 311 311 310 310 309 308 308 307 306
326 328 329 330 330 329 330 330 330 329 328 327 327 327 327 326 326 326 325 325 323 322 320 320 321 320 319 319 319 319 318 318 319 319 319 319 319 319 320 320 319 318 317 317 317 316 316 316 315 315 315 315 316 317 317 316 316 316 315 315 315 315 315 315 314 314 313 313 313 313 313 313 314 314 314 314 313 312 310 310 310 309 308 308 307 306 305
327 328 329 330 330 330 330 330 330 328 326 325 326 326 325 325 325 324 323 323 322 321 320 319 319 319 318 318 318 318 318 319 319 319 319 319 319 319 318 318 317 317 316 316 316 316 316 316 315 315 315 315 316 316 316 316 315 315 315 315 315 314 314 314 313 313 313 313 313 313 313 313 313 313 313 313 312 310 309 309 309 308 308 307 306 305 305
Wind_Speed
9 8 6 7 7 7 8 8 9 8 8 11 11 8 10 11 6 4 5 5 4 4 6 7 6 6 7 6 5 7 8 9 9 8 6 6 7 7 4 2 3 4 4 4 4 4 4 5 5 4 4 4 6 7 8 10 14 16 18 19 19 19 19 19 19 20 20 20 19 20 22 22 23 23 23 23 22 22 22 22 22 22 22 23 23 23 23
8 8 6 6 7 9 9 7 7 7 7 10 13 11 10 10 7 6 6 6 6 6 7 8 7 7 9 8 7 8 7 6 9 8 5 6 7 5 4 5 6 6 6 7 6 6 6 5 3 2 4 5 7 9 10 13 16 17 17 18 19 19 19 19 20 20 20 20 21 23 25 24 24 24 24 23 22 22 22 21 21 21 21 22 22 22 23
8 9 8 7 8 11 7 7 8 8 8 10 12 11 10 9 5 4 6 6 6 7 7 9 8 7 6 6 6 5 4 7 12 13 9 8 9 8 8 8 7 6 6 6 5 4 4 3 3 3 5 6 8 11 13 15 17 17 18 19 19 19 19 20 21 22 24 25 26 27 27 26 25 24 24 23 23 22 22 21 21 21 21 21 21 20 21
7 7 9 9 9 9 4 12 10 7 8 9 10 9 10 9 7 8 8 6 4 5 7 8 8 6 5 4 4 4 5 8 12 11 9 9 9 10 10 8 7 6 6 5 3 3 3 3 4 5 6 7 10 13 16 17 17 18 18 18 19 19 20 21 23 25 26 27 27 26 25 24 23 23 22 22 22 23 22 21 20 20 20 20 20 20 21
5 7 10 10 9 6 2 7 6 6 5 5 7 7 11 10 8 7 7 5 3 3 5 5 4 5 6 6 5 5 5 6 9 8 7 8 9 9 9 8 7 6 5 4 4 4 4 4 5 6 7 9 13 16 17 17 16 17 17 18 18 20 21 22 23 24 23 23 22 21 20 20 20 21 21 21 22 22 21 20 20 20 19 19 20 20 20
7 10 11 10 7 3 1 3 4 5 4 4 5 10 11 10 9 9 8 6 3 3 6 5 4 6 8 7 6 6 6 7 9 9 8 9 11 10 8 7 7 5 4 4 5 4 5 5 5 5 8 12 15 16 15 14 14 16 17 17 18 20 21 21 22 21 20 19 19 18 18 18 18 19 20 20 21 21 21 20 20 19 19 18 18 19 20
6 8 9 9 5 0 4 4 2 5 5 5 10 14 14 11 10 11 11 7 4 6 8 7 7 7 8 7 8 8 8 7 9 10 9 10 9 8 8 7 5 5 5 5 5 5 5 5 6 8 11 14 14 13 12 12 13 16 16 16 18 19 20 20 21 20 20 19 19 18 17 18 18 19 19 20 20 21 20 20 19 19 19 18 18 19 19
5 7 7 6 1 5 6 4 1 3 5 5 8 11 12 9 8 10 10 6 5 6 7 8 8 7 7 7 8 7 8 9 9 10 10 10 9 9 9 7 6 6 6 6 6 6 7 7 8 11 13 14 12 11 11 11 13 14 14 15 18 19 18 19 20 20 20 19 18 18 18 19 19 20 20 21 21 21 20 19 19 19 19 18 19 20 20
5 7 4 2 6 7 4 1 2 4 5 2 4 7 7 7 7 8 7 5 5 5 5 9 10 6 4 5 5 7 8 10 10 11 10 10 11 10 9 8 8 8 7 8 7 7 7 8 10 13 14 13 11 11 12 11 13 14 14 15 18 18 18 20 20 20 20 19 18 19 20 20 20 20 21 21 21 21 21 20 19 19 18 18 18 19 19
5 7 3 3 5 3 1 1 2 4 5 3 7 9 6 5 8 11 8 4 3 2 3 9 12 5 0 2 3 5 7 8 8 9 9 10 11 11 9 8 10 9 8 9 8 7 7 10 14 17 15 11 10 11 12 11 13 15 15 16 19 18 18 20 20 20 20 20 20 21 21 21 22 22 21 21 21 21 21 20 19 18 19 18 18 18 17
5 8 6 1 2 2 0 2 2 1 5 4 1 5 3 2 3 8 11 9 6 4 2 6 8 3 0 2 3 4 6 8 9 9 10 11 11 10 9 9 10 10 8 9 9 8 9 14 17 18 14 11 11 12 12 13 15 16 15 16 18 18 17 19 19 19 19 21 21 21 21 21 23 23 21 20 20 20 21 19 18 18 19 18 17 17 17
7 7 3 2 4 4 1 2 2 3 3 5 7 4 1 2 4 5 6 6 5 4 3 5 5 3 3 3 4 6 6 8 10 10 11 11 10 10 10 11 12 10 8 9 10 10 12 14 15 16 15 12 12 13 13 14 17 17 16 16 17 18 17 18 19 19 19 20 20 20 20 20 21 22 22 19 19 20 20 19 18 18 18 19 19 20 20
7 4 2 5 5 4 5 4 6 7 5 6 4 2 3 4 3 6 8 8 9 8 7 7 6 6 7 5 8 10 8 8 9 9 10 10 9 9 10 11 12 11 10 10 10 10 12 12 12 15 16 13 13 14 15 15 17 17 17 16 16 17 17 17 18 18 18 19 19 19 19 19 19 20 21 19 19 20 20 18 18 20 20 21 22 22 22
4 3 6 5 5 4 7 5 6 9 7 3 3 5 7 7 8 10 9 8 7 7 7 7 6 5 5 5 7 9 9 8 8 8 9 10 10 10 10 10 12 11 10 10 11 11 11 11 12 14 14 13 14 15 15 16 17 17 17 17 17 17 17 17 18 18 17 18 19 18 18 19 19 19 19 19 19 19 19 19 20 21 22 21 20 20 21
4 5 5 3 3 6 8 5 4 8 5 5 9 10 10 10 10 10 9 8 7 6 6 6 5 5 5 4 4 7 8 7 7 7 9 9 10 10 9 10 12 12 10 10 11 12 11 12 13 14 13 14 15 15 15 16 16 16 17 17 18 18 17 17 19 17 16 18 18 17 18 18 18 18 18 18 19 19 20 21 23 24 24 21 20 20 20
3 3 4 3 4 7 10 8 7 9 10 10 11 11 11 10 8 7 8 7 6 7 8 7 5 6 6 5 5 5 6 7 7 7 8 9 9 9 10 11 12 11 10 10 11 12 12 12 13 13 14 14 15 15 16 16 16 16 17 17 18 18 17 18 19 16 16 17 18 18 18 18 17 17 17 17 18 19 20 22 25 28 28 23 21 21 20
5 5 5 6 8 10 13 14 14 14 14 13 12 12 12 11 9 9 9 7 6 7 8 8 6 7 8 8 7 7 6 7 10 9 7 8 8 8 9 11 12 11 10 11 12 12 12 13 13 13 14 14 14 15 16 16 16 17 18 17 18 19 18 18 18 16 16 17 17 17 18 18 18 18 17 17 18 19 22 25 27 28 28 24 21 21 20
10 11 9 11 13 14 16 17 16 16 16 15 15 15 14 13 11 9 8 7 7 7 8 9 8 8 8 8 8 7 6 7 8 7 7 7 8 8 8 8 11 13 12 11 12 12 12 13 13 13 14 14 14 16 17 16 17 17 18 18 18 18 18 17 17 16 17 17 16 16 18 19 19 19 19 18 18 20 23 26 26 27 27 23 20 21 19
6 7 9 12 13 14 15 15 16 16 15 15 15 14 13 12 10 9 7 6 6 7 9 8 7 7 9 9 8 8 7 7 6 6 7 7 7 9 8 8 12 14 13 12 13 12 12 13 13 14 15 14 14 16 16 16 16 17 19 19 18 18 18 17 17 18 17 16 15 17 19 19 18 19 19 19 19 22 23 24 25 27 27 25 24 24 21
6 8 11 13 14 14 14 13 14 14 14 14 13 13 12 11 9 8 8 7 7 7 8 7 5 6 8 8 8 8 8 7 5 6 7 7 7 9 8 9 13 15 12 12 12 11 12 13 13 14 15 14 14 15 16 16 17 18 19 19 17 18 18 16 17 18 17 16 16 17 17 17 17 18 20 20 21 23 23 24 25 26 26 25 26 26 25
8 10 13 14 13 13 12 12 13 12 12 12 11 10 10 9 8 7 6 7 7 7 6 5 5 6 7 7 8 7 6 5 5 7 6 5 7 8 8 10 14 14 11 11 11 11 12 13 13 15 15 14 14 15 16 17 17 18 19 18 17 18 17 15 17 18 16 16 17 17 17 16 16 17 19 20 21 22 23 24 25 24 24 24 24 26 28
5 8 9 7 6 8 10 10 11 10 10 10 9 8 8 8 8 7 6 6 6 6 6 6 6 5 6 7 7 6 4 3 4 7 7 5 6 7 8 10 12 12 10 10 10 11 12 13 14 14 14 14 14 15 17 17 16 17 17 17 17 17 15 15 17 16 16 16 16 16 17 17 16 17 19 20 21 22 23 24 23 23 24 25 25 27 29
7 9 9 7 8 11 11 10 9 9 8 7 7 7 7 8 8 7 6 6 6 5 5 6 6 6 6 7 7 6 4 3 4 6 7 7 8 8 8 9 11 10 10 9 10 11 12 13 14 14 14 14 14 16 17 16 15 17 17 16 16 15 15 17 17 14 15 17 16 16 18 18 16 17 18 19 20 22 23 23 22 22 24 26 26 27 28
12 11 10 10 12 13 11 9 9 9 8 8 8 9 9 9 8 7 6 6 6 6 5 6 8 9 8 7 6 5 4 3 4 5 6 7 8 8 7 8 10 10 10 9 10 10 11 13 14 13 14 14 14 16 17 14 15 17 16 15 15 13 13 17 15 13 15 17 15 16 19 18 16 17 18 18 19 21 22 22 21 21 24 25 25 25 25
15 14 13 13 14 12 11 9 9 8 8 9 11 11 9 7 6 5 5 5 6 6 6 6 8 9 8 6 5 5 4 4 5 6 6 6 7 7 7 8 9 9 9 10 11 10 11 12 12 13 14 14 14 16 15 13 16 17 14 13 13 12 14 17 15 13 15 17 15 17 19 18 17 18 18 19 19 20 21 21 21 22 24 25 24 23 23
18 17 16 15 13 9 7 8 9 8 8 8 7 5 5 7 6 4 3 5 6 6 7 7 7 7 7 6 5 5 5 5 6 7 6 6 7 7 7 8 8 8 9 9 10 10 11 11 12 12 13 14 15 15 13 13 17 16 13 12 11 11 16 18 14 12 14 15 14 16 18 17 17 17 17 18 19 19 20 20 20 21 22 23 23 22 21
14 12 10 11 11 9 9 10 10 8 7 6 4 1 3 6 5 4 5 5 5 5 6 7 6 6 6 6 5 4 4 4 6 6 6 6 7 7 7 7 7 8 8 8 8 9 10 11 12 12 12 13 15 14 12 13 15 13 12 12 10 11 19 19 14 12 14 13 12 15 17 17 17 16 16 18 18 18 19 20 19 20 20 22 22 19 18
10 9 8 10 12 11 10 10 7 5 5 6 7 6 2 2 2 3 7 7 6 6 7 6 5 6 7 7 5 4 4 5 5 5 5 6 6 7 7 6 6 7 7 7 8 8 8 10 12 12 12 13 14 13 11 12 12 11 11 11 9 13 21 19 13 11 13 13 14 16 16 15 17 17 17 18 18 18 19 19 19 19 20 21 19 15 16
11 12 13 13 12 9 8 7 6 5 4 5 6 6 5 5 5 4 6 7 5 5 5 4 4 6 7 8 6 5 5 5 5 4 5 6 6 7 7 6 6 7 7 9 11 9 7 9 11 12 13 14 14 11 10 11 11 10 10 9 9 13 19 19 14 13 14 14 15 17 16 15 16 16 16 17 18 18 19 19 19 19 19 20 18 16 19
11 11 11 10 7 7 8 8 6 6 5 5 5 5 5 6 5 5 6 7 6 5 4 4 4 5 5 6 6 5 5 5 5 3 4 5 6 6 7 6 6 7 8 10 12 10 8 8 10 12 16 15 12 10 10 11 10 9 8 9 10 13 18 18 15 14 14 13 14 17 17 16 15 14 16 18 18 18 18 19 19 19 19 20 19 17 20
10 10 8 6 4 6 9 7 7 6 4 4 4 4 4 5 5 5 5 5 5 4 3 3 4 4 4 4 5 5 4 5 5 5 4 5 6 5 5 5 7 8 9 10 11 10 9 8 9 14 17 14 10 9 11 11 10 9 8 8 10 13 17 17 14 11 12 14 15 15 16 17 16 16 18 19 17 17 19 19 19 19 20 20 19 18 20
9 7 6 5 3 3 5 4 4 4 4 4 4 3 3 4 5 5 5 5 5 4 3 5 4 4 4 4 5 5 4 4 5 5 5 6 6 4 4 6 7 8 9 9 9 10 9 8 10 14 15 11 8 8 10 10 9 8 7 8 8 10 12 13 12 9 9 13 16 14 13 15 15 15 18 19 17 16 18 19 19 19 19 19 19 20 21
5 4 5 4 3 4 2 4 4 3 3 3 2 2 2 3 3 4 4 4 3 2 4 5 4 3 3 4 4 4 4 4 5 5 5 6 6 6 7 8 9 9 9 8 9 9 8 9 12 13 11 9 8 9 10 10 8 7 7 7 6 7 9 11 12 11 11 13 17 17 15 16 17 16 17 19 18 16 17 18 19 19 18 19 20 21 22
3 3 3 2 4 7 5 3 3 3 3 3 2 1 2 2 3 3 4 4 3 1 3 4 3 2 3 4 4 4 4 5 5 5 5 6 6 8 9 10 9 10 10 8 8 8 7 9 13 13 9 7 8 8 10 11 9 6 6 8 7 8 8 9 11 13 13 13 15 16 15 15 18 19 17 17 18 19 18 18 19 19 18 19 19 20 21
5 5 4 5 7 7 6 7 6 4 4 4 3 2 3 3 3 4 5 5 3 0 1 2 2 2 4 4 4 3 4 5 5 5 6 7 7 8 10 10 9 10 10 7 6 7 7 9 13 13 9 7 7 8 11 13 10 4 5 9 11 10 8 7 9 12 12 12 14 15 14 14 17 19 17 16 18 20 19 19 20 20 19 18 19 19 20
4 3 4 6 7 5 6 8 7 5 6 6 5 4 5 5 4 4 5 4 2 2 1 1 2 3 4 4 3 3 4 5 5 6 8 8 9 9 10 9 8 9 9 7 6 7 8 9 12 13 10 8 8 10 13 13 11 5 3 8 11 10 8 9 10 10 11 13 14 14 14 14 16 16 15 16 18 19 19 19 20 20 18 18 19 19 20
4 3 4 5 5 4 4 5 5 4 5 5 4 4 5 4 4 4 4 3 3 4 4 3 3 4 4 4 4 4 4 4 6 8 8 9 10 10 9 8 8 7 8 8 8 8 8 10 12 11 7 7 10 11 12 14 12 7 4 7 9 9 8 10 10 9 11 14 14 12 13 14 14 14 14 15 16 17 17 19 20 20 19 19 19 18 19
5 5 4 4 4 4 4 4 3 4 3 3 4 4 4 4 5 5 4 4 4 5 6 5 4 4 4 4 4 5 5 6 8 8 8 8 9 8 7 7 7 6 7 8 9 8 10 15 14 9 6 9 12 10 11 15 14 7 3 5 7 8 9 10 10 10 11 13 13 13 13 14 14 14 15 15 15 15 15 16 18 19 19 19 18 18 18
4 4 3 2 3 4 3 3 3 4 4 3 4 4 4 5 5 5 4 4 4 4 6 6 5 4 4 4 5 5 5 7 8 7 7 7 8 8 8 8 7 6 6 7 8 9 12 15 13 6 4 9 12 9 11 16 15 7 2 4 6 8 9 10 10 11 12 13 13 14 15 15 15 15 15 15 15 15 15 15 16 17 18 18 18 18 18
3 2 2 3 4 4 3 3 3 4 3 3 4 4 4 4 4 4 5 4 4 3 5 6 6 6 5 5 5 5 5 7 8 7 7 8 9 10 8 6 4 4 5 7 9 12 12 12 12 9 7 8 9 9 11 15 15 9 4 5 7 9 10 10 11 12 13 14 15 16 16 16 17 17 17 16 16 16 16 16 15 15 17 18 18 17 18
1 1 1 2 3 3 3 3 3 3 3 3 4 4 4 4 4 5 4 4 4 4 4 5 6 5 5 5 5 5 5 7 8 7 7 8 9 9 7 5 5 5 7 10 13 14 13 13 14 14 12 11 10 10 13 16 16 12 7 7 9 10 10 11 12 13 14 15 16 17 17 18 19 19 19 18 18 17 16 15 14 14 15 17 18 17 17
0 0 1 1 1 1 2 3 3 4 4 4 4 5 4 4 5 5 5 4 4 5 5 5 6 5 5 6 6 5 6 7 7 7 7 9 9 8 7 7 7 9 11 13 14 12 11 12 13 12 12 13 14 15 17 18 15 9 6 6 8 10 11 13 13 14 15 16 17 18 19 19 19 19 20 19 18 16 15 13 13 13 14 15 15 16 16
2 1 2 1 0 1 3 4 4 5 5 5 5 5 5 5 5 5 5 5 5 5 6 6 6 6 6 6 6 6 6 7 8 7 7 8 8 8 7 7 8 8 10 12 12 11 12 13 12 12 14 16 16 17 19 17 12 8 8 10 10 11 12 13 14 15 16 17 18 19 20 20 20 20 21 20 17 15 14 13 13 13 13 13 14 14 15
1 1 2 1 1 3 4 4 5 6 6 6 6 6 5 6 6 6 5 5 5 5 6 7 6 6 6 7 7 6 7 7 8 8 7 8 8 8 7 7 8 9 10 12 14 14 14 14 14 15 18 19 17 17 16 13 8 7 9 11 11 12 13 14 15 16 17 17 19 21 21 22 21 21 20 19 16 14 13 13 13 12 12 12 13 13 14
1 2 2 2 3 4 5 5 6 7 7 7 8 7 6 6 6 6 6 5 5 5 7 7 5 5 7 7 7 6 6 7 8 7 7 8 9 9 8 9 10 11 12 14 15 16 15 14 16 18 19 19 18 17 15 10 7 7 9 10 11 12 14 15 16 17 17 18 21 22 21 21 22 20 18 18 17 14 11 12 13 12 11 12 12 12 14
2 2 2 3 4 5 6 7 7 7 7 8 8 7 5 6 6 6 6 5 5 6 6 6 6 6 7 7 6 6 6 7 8 8 8 8 9 10 10 10 11 12 14 16 17 16 15 15 16 18 18 18 18 17 13 9 8 9 10 10 11 14 16 16 17 17 18 20 22 22 21 21 21 19 18 20 20 15 11 10 11 11 10 12 12 12 14
1 1 2 4 6 6 7 7 7 6 6 6 6 5 4 5 5 6 5 4 5 6 6 5 5 6 6 7 7 7 6 7 7 7 7 8 9 10 10 11 12 14 16 17 17 16 15 15 16 17 17 17 17 15 9 6 7 9 10 10 13 15 17 16 17 18 19 21 22 21 21 21 20 19 19 20 19 14 10 10 11 10 11 12 12 11 13
2 4 5 6 6 6 7 6 6 6 7 7 6 5 4 4 5 5 5 5 6 6 5 4 5 7 7 6 6 6 5 6 7 8 8 9 10 10 11 13 14 15 16 17 16 14 13 14 16 17 17 17 17 14 8 6 9 10 11 12 15 16 16 16 18 20 21 22 21 20 19 19 18 18 18 17 15 12 11 11 11 10 11 12 11 10 12
1 4 5 6 7 7 6 6 6 7 7 6 5 4 4 4 4 5 5 5 5 5 4 4 5 4 3 3 4 3 3 5 8 9 10 11 12 12 13 14 14 14 15 15 14 13 14 16 17 16 15 17 17 13 8 9 13 14 13 14 16 17 17 19 20 21 21 20 18 17 18 18 18 17 18 17 15 13 12 11 10 10 10 10 10 10 12
4 5 5 6 6 5 4 5 6 6 5 4 3 3 4 4 4 5 5 4 2 3 4 7 7 5 3 5 6 5 4 6 8 9 11 12 13 13 14 14 13 13 13 13 12 13 15 16 16 15 15 17 17 13 10 13 16 16 15 17 18 18 17 17 18 18 18 18 17 16 18 18 17 16 16 16 14 13 11 10 10 11 11 10 10 11 11
6 5 5 5 6 5 4 4 5 5 5 4 3 2 3 2 2 2 2 2 3 3 3 4 5 3 4 5 5 4 5 7 9 10 11 11 12 13 13 12 12 12 12 11 11 12 13 14 14 15 16 17 16 13 13 14 16 15 15 17 17 16 15 16 17 17 17 18 18 18 18 16 15 14 14 14 13 12 11 10 10 10 9 10 11 12 11
6 5 5 5 5 4 4 4 5 5 4 2 1 1 1 1 1 1 1 3 5 4 1 1 2 3 4 4 4 4 6 8 9 10 10 11 11 12 12 11 10 11 10 9 10 12 12 12 12 13 13 13 14 13 14 15 15 15 16 16 16 15 16 18 18 17 16 17 17 17 16 14 14 14 14 13 12 12 11 10 10 10 9 9 11 11 10
Wind_Direction
266 272 286 302 301 296 300 304 307 323 340 342 345 358 14 23 47 104 89 82 100 111 109 106 106 113 120 137 144 134 136 134 129 127 123 111 106 107 114 102 60 57 68 79 78 78 78 70 56 29 2 355 340 326 326 332 332 334 336 336 336 337 335 331 328 327 327 328 326 323 323 322 320 320 320 318 317 318 318 318 318 318 318 319 321 322 323
278 282 276 278 286 285 290 305 315 330 356 2 3 2 6 29 70 110 104 101 96 85 95 100 99 112 129 147 150 137 137 133 124 125 118 110 118 120 104 78 73 77 77 72 71 71 64 49 22 338 327 340 340 331 332 336 337 337 336 334 335 335 332 330 328 327 326 324 322 321 321 320 319 319 319 317 317 317 316 315 315 315 316 319 321 321 322
281 284 276 267 266 270 296 20 14 350 359 2 355 355 8 20 23 39 63 82 79 77 98 110 109 112 118 131 136 124 104 90 103 119 130 129 127 118 97 78 68 73 71 61 60 62 52 17 327 328 338 346 343 336 338 341 338 335 333 334 334 331 330 328 326 324 322 320 318 317 317 316 316 317 317 317 317 318 317 316 315 316 317 319 320 321 322
274 283 283 280 272 271 358 50 41 15 15 354 330 351 24 20 354 4 35 52 63 92 108 101 102 116 111 87 75 96 115 106 103 113 124 122 114 104 96 87 71 67 61 55 62 54 29 355 344 354 349 343 344 342 341 339 335 332 332 331 330 327 327 325 322 320 318 316 315 315 315 316 318 319 319 318 319 322 322 321 320 319 319 320 320 320 322
281 285 284 285 284 282 7 45 33 31 31 332 319 14 37 30 21 28 44 52 57 105 106 87 92 112 97 72 55 65 90 92 83 78 75 80 81 77 78 75 65 61 53 50 63 56 29 8 1 359 343 340 345 342 338 337 334 330 330 330 329 328 328 327 324 322 321 321 324 325 325 325 323 322 323 323 323 325 324 323 323 322 321 321 320 320 321
289 291 289 285 286 294 31 44 10 357 349 327 11 47 51 45 51 65 76 81 83 81 80 82 93 93 85 82 83 71 55 63 79 77 62 63 66 61 62 63 54 51 54 51 49 43 32 15 356 344 337 341 346 342 340 341 335 331 335 336 333 333 335 333 332 332 334 336 338 340 338 334 330 328 328 328 327 327 327 325 325 324 324 322 321 322 321
283 290 287 283 279 167 104 91 7 320 334 44 68 66 60 54 64 82 86 81 66 65 79 95 100 94 87 75 69 63 48 51 76 81 72 68 66 59 64 72 61 49 46 42 35 28 18 1 347 343 344 348 351 348 347 346 339 339 343 341 340 342 343 341 340 342 343 342 343 344 341 337 335 334 334 333 333 332 331 329 328 327 326 324 323 324 323
278 277 283 291 209 130 131 133 155 319 346 47 74 72 68 65 71 85 92 94 82 75 92 106 94 90 99 84 61 55 48 39 44 52 53 47 42 46 57 64 66 62 46 35 31 15 1 356 352 350 352 356 356 352 352 351 346 348 350 347 347 351 350 346 346 347 346 343 342 342 340 339 339 338 337 336 336 336 335 334 331 330 329 327 326 327 329
268 276 296 102 131 135 135 105 34 18 3 27 95 87 78 83 92 93 88 82 84 91 115 114 98 86 95 84 57 48 47 40 32 29 28 26 26 34 41 38 41 47 40 32 22 4 3 6 356 351 353 359 360 356 357 357 352 353 356 353 351 354 353 349 348 349 348 344 342 343 342 341 340 338 338 337 337 338 339 339 338 336 335 333 333 335 337
269 277 280 143 141 129 93 13 359 353 343 24 109 110 90 87 114 121 118 98 97 155 149 117 114 122 185 54 51 36 32 32 29 19 15 20 21 24 30 27 20 20 25 25 12 3 11 3 348 347 353 2 4 0 1 360 354 356 359 355 353 352 350 348 348 348 347 343 343 347 348 345 341 340 340 340 339 339 340 343 343 341 342 343 343 344 345
274 278 281 232 108 77 147 241 244 323 332 336 137 146 126 50 73 120 139 152 159 180 168 109 116 134 125 93 72 27 11 12 18 21 20 19 15 17 27 24 12 9 18 22 15 7 1 353 348 351 359 9 8 3 4 2 354 356 360 355 351 348 347 347 347 346 345 343 344 350 350 345 344 346 345 344 341 339 342 346 346 344 345 347 347 346 346
251 258 281 69 97 96 80 287 342 18 341 292 277 267 144 61 7 51 109 120 100 87 82 85 79 50 60 73 23 18 18 9 13 23 25 19 12 16 23 20 13 12 17 21 18 7 1 1 357 354 359 11 9 3 5 359 352 356 0 353 347 346 347 348 346 344 345 344 345 349 348 344 345 348 348 347 343 341 345 349 349 346 344 343 341 340 340
253 236 97 91 101 60 10 3 20 1 302 260 280 326 124 138 93 75 82 77 68 60 53 67 72 58 59 43 10 18 32 22 16 21 20 16 15 18 19 17 16 15 16 21 19 5 3 3 349 345 358 12 7 2 3 356 351 357 358 348 344 347 349 349 346 346 346 344 346 350 347 343 342 344 347 349 345 345 349 350 347 346 344 343 344 343 341
323 45 70 89 102 28 340 339 25 4 314 266 92 106 136 125 96 85 78 71 74 70 61 72 75 48 43 43 21 17 23 25 23 18 15 17 18 18 19 19 17 14 13 20 18 8 5 3 350 352 7 12 2 1 0 354 354 357 353 348 348 350 353 351 348 348 348 346 348 350 345 341 340 343 348 348 347 349 350 347 345 349 351 351 351 348 345
358 55 59 73 89 23 351 332 16 22 26 108 114 121 126 109 95 91 75 54 46 46 47 53 47 27 32 61 51 20 13 22 26 16 13 18 17 16 19 18 15 14 15 19 18 14 12 9 4 7 11 6 1 2 358 354 356 355 351 352 351 350 354 352 347 349 350 347 348 348 343 340 342 346 348 346 348 353 352 346 349 355 357 355 353 349 346
346 47 61 68 70 43 37 50 72 71 83 109 118 113 105 97 90 90 86 75 54 35 18 10 24 35 23 27 47 38 20 27 38 33 22 19 19 21 23 19 15 16 20 20 20 19 16 11 10 11 8 4 3 1 357 357 357 353 351 353 352 353 356 352 348 351 350 347 351 351 345 343 345 346 347 347 349 353 353 353 356 357 355 354 355 353 350
54 74 90 91 83 75 74 81 89 89 87 93 97 94 89 84 75 74 80 76 60 41 19 10 28 36 15 12 33 40 26 30 46 48 32 25 30 26 22 24 24 22 22 20 18 19 16 13 13 10 5 4 3 0 1 3 358 352 351 352 353 354 354 351 352 351 346 349 355 351 345 346 344 343 347 351 350 351 353 355 355 354 351 352 356 355 351
88 82 90 96 88 83 83 84 85 86 82 81 83 82 78 73 69 70 69 56 48 44 32 26 30 31 24 18 20 28 30 32 43 43 29 33 37 18 13 35 41 30 21 16 17 16 12 12 13 7 3 6 4 360 2 1 353 350 351 352 353 354 351 350 353 348 343 351 356 348 344 345 343 343 351 355 351 349 351 353 352 352 353 354 355 355 352
120 95 96 100 92 88 88 87 86 86 84 81 82 83 80 76 71 65 55 48 51 50 42 36 29 28 32 22 12 27 46 44 35 30 28 31 25 11 16 39 39 30 20 11 11 13 10 10 9 4 3 5 360 357 359 355 348 349 352 352 352 352 351 352 351 346 347 355 355 349 350 351 348 350 357 359 354 349 351 354 354 355 356 357 358 357 353
106 109 107 101 93 91 92 91 90 90 90 88 87 87 83 77 70 62 48 40 46 50 47 40 28 29 34 25 15 24 43 47 36 29 28 15 354 359 15 20 19 19 15 7 7 8 7 6 3 1 2 360 355 354 353 349 348 352 352 350 350 351 352 352 349 347 351 356 352 351 354 354 351 351 354 355 353 350 352 356 356 355 357 358 1 2 359
104 115 117 110 102 94 89 89 90 90 91 92 88 86 85 77 64 55 52 52 54 52 41 27 26 36 37 30 25 26 34 45 34 22 23 4 345 2 23 24 20 18 12 7 6 4 5 3 359 359 360 355 354 356 351 348 352 353 350 349 350 350 351 350 349 351 354 354 352 354 353 348 348 350 350 350 351 352 355 357 357 359 359 357 359 2 0
130 127 127 120 111 107 102 100 100 98 99 97 83 67 67 70 59 45 44 51 52 48 34 14 18 40 39 27 28 26 21 39 38 20 8 348 345 3 17 22 23 17 9 10 8 1 1 359 356 358 358 352 353 353 350 350 351 347 345 347 348 350 351 348 348 353 356 352 352 354 350 347 349 351 349 348 350 353 357 358 359 1 359 354 355 359 358
121 125 126 105 94 105 109 106 100 94 89 89 87 71 57 57 55 46 43 40 29 29 32 18 22 44 41 23 23 18 357 12 45 26 1 353 3 7 2 9 17 14 9 12 7 0 0 357 355 357 355 351 350 349 350 354 349 342 344 347 350 354 351 342 345 358 359 354 354 354 351 349 351 352 350 348 348 350 355 356 357 360 358 353 353 355 356
107 115 118 110 105 109 110 104 93 81 63 58 72 78 67 54 44 37 40 40 21 14 14 12 25 38 30 14 15 7 343 356 33 13 349 357 12 10 357 2 14 16 15 12 5 359 356 354 355 354 349 348 348 348 352 354 341 337 344 351 355 357 341 335 351 11 3 354 356 357 354 353 353 352 351 349 348 350 353 353 355 0 360 354 350 351 354
97 97 100 105 108 111 112 106 92 79 68 63 64 66 63 56 47 37 36 30 23 26 23 10 16 25 19 8 7 359 354 27 37 18 5 7 7 2 357 357 5 13 11 4 1 358 350 348 353 352 348 349 347 346 352 348 334 337 349 357 2 358 335 335 0 17 2 356 0 359 358 359 357 355 353 350 350 352 352 352 356 359 358 354 348 345 349
99 102 104 108 105 96 98 107 100 86 78 71 66 71 77 65 57 67 70 39 29 39 38 20 11 12 9 5 2 358 7 23 17 11 15 9 356 354 358 355 358 7 4 358 358 356 348 347 349 347 347 350 346 347 353 343 334 344 1 2 359 348 333 343 11 20 360 358 3 358 358 359 357 356 356 353 353 353 351 354 356 356 357 355 344 338 350
105 109 117 123 111 82 70 84 89 77 63 48 22 13 105 80 68 115 122 82 53 57 52 33 20 16 7 360 3 11 15 8 0 3 7 356 346 352 359 355 354 360 359 355 355 354 351 349 347 345 346 346 344 348 353 341 338 355 9 3 355 339 336 351 23 25 1 0 2 357 357 357 356 359 359 355 355 355 353 354 353 351 355 353 339 338 1
96 83 88 108 108 91 81 85 79 59 54 43 10 347 358 45 45 113 107 84 63 61 54 36 28 23 4 357 13 23 4 359 11 12 360 351 349 356 360 357 351 352 351 344 343 351 358 352 345 344 345 342 342 348 351 343 346 3 9 2 353 343 347 4 34 28 4 4 4 1 1 359 358 2 2 357 356 355 352 355 354 350 353 354 344 341 355
89 80 85 98 103 100 95 88 62 32 36 41 19 360 358 356 348 18 57 61 56 45 26 13 41 40 11 2 16 14 354 11 29 11 354 6 8 354 349 351 354 353 343 331 331 343 359 355 347 345 341 339 343 351 348 344 351 5 7 360 353 354 3 21 39 27 8 5 3 3 3 359 357 2 3 359 357 356 353 355 355 351 351 355 351 341 342
97 97 98 100 101 101 92 68 27 358 356 3 4 8 15 10 355 357 20 33 37 25 355 354 38 37 5 359 10 357 349 16 21 343 337 4 360 341 338 348 352 348 335 326 328 339 355 3 357 344 333 335 348 354 344 345 358 8 3 354 353 360 9 19 26 18 5 2 4 5 4 359 356 359 1 358 356 357 355 355 355 353 352 353 351 345 346
107 106 101 90 81 88 81 49 9 359 2 355 351 359 5 6 5 7 14 17 9 355 353 28 37 11 347 6 17 2 356 10 3 343 347 360 350 334 336 344 343 337 331 327 329 339 357 10 358 337 330 338 359 356 341 347 2 6 0 359 1 0 1 5 14 19 11 5 4 3 3 4 3 2 2 359 355 356 358 355 353 352 351 352 352 349 349
116 101 87 74 52 63 80 71 44 28 354 328 343 8 357 347 354 3 11 6 350 349 34 60 51 20 14 25 20 6 3 2 349 341 348 355 350 338 335 342 338 331 327 325 325 336 353 359 345 337 341 356 8 350 342 354 3 358 359 8 3 352 349 352 2 18 21 10 360 354 357 2 1 0 4 2 355 354 357 354 351 350 349 351 354 353 351
116 78 90 97 15 353 51 108 98 53 351 333 1 20 344 334 346 352 357 352 331 342 38 41 33 22 12 358 350 355 355 341 336 335 335 342 340 327 326 332 330 325 326 324 318 325 338 345 346 351 1 10 358 338 340 354 356 350 7 22 3 343 352 359 360 6 15 12 3 360 1 359 352 355 6 7 359 358 360 356 353 352 348 347 352 354 351
69 59 99 96 360 360 20 39 25 360 342 327 317 313 328 349 354 342 334 326 312 334 35 23 11 11 352 332 328 336 334 328 333 332 323 324 328 324 324 327 325 325 329 325 313 315 326 341 351 360 8 7 351 333 334 347 350 349 16 25 359 337 347 357 358 2 8 4 359 0 4 1 356 358 5 5 360 1 2 358 355 355 351 347 348 349 346
80 75 61 23 13 17 11 354 346 355 3 351 332 335 354 355 346 336 332 327 322 29 68 19 356 357 351 341 332 323 320 324 328 320 314 317 322 325 327 326 324 329 335 331 322 322 324 335 349 357 3 8 355 323 324 345 357 1 15 12 358 348 351 355 358 4 1 348 346 352 357 358 358 358 359 359 358 359 0 357 354 353 351 347 346 346 343
80 75 43 24 20 13 354 349 350 358 5 4 355 343 345 345 338 335 331 316 277 235 236 309 325 321 325 334 331 315 313 318 316 315 318 319 317 319 322 320 320 334 344 345 340 333 320 326 343 351 357 8 355 322 320 345 3 13 6 352 344 343 354 358 0 4 353 341 343 351 352 351 353 353 354 355 355 355 356 356 354 353 351 347 346 345 344
71 65 47 32 21 356 342 348 342 324 328 341 336 327 332 332 319 312 311 300 272 246 235 243 275 290 297 310 315 309 310 313 309 310 316 316 312 315 320 318 318 328 332 332 337 331 309 313 333 342 340 347 342 318 311 331 347 356 7 349 334 332 346 351 351 350 345 339 341 343 342 342 344 343 342 344 345 347 351 353 352 351 349 347 345 345 345
48 48 42 30 7 338 329 336 332 313 302 307 314 318 321 318 310 305 302 297 282 249 232 238 264 282 287 295 301 300 302 305 306 311 319 320 315 315 314 310 312 316 312 320 338 332 303 307 326 336 318 325 334 319 303 316 327 335 6 3 339 329 339 345 341 336 335 336 337 335 333 333 334 332 331 334 336 338 342 345 348 350 348 345 344 344 344
33 34 25 3 340 339 338 327 319 318 314 311 313 311 306 304 302 297 293 296 288 252 235 240 250 255 256 266 277 284 292 300 305 315 323 315 309 309 304 297 307 329 325 321 332 327 309 312 329 339 302 317 329 316 300 313 322 323 350 3 339 322 323 329 329 327 327 328 329 329 328 327 328 327 326 327 329 329 329 332 337 342 343 342 341 342 342
19 5 350 332 328 334 332 310 306 312 310 305 305 303 300 303 305 302 299 299 292 264 242 240 242 245 250 259 267 277 291 300 307 321 329 320 315 318 313 298 309 346 336 317 325 334 335 337 344 344 328 325 324 304 298 312 319 311 300 318 318 313 316 319 318 319 322 323 321 321 322 322 322 322 321 321 321 322 323 325 328 333 338 339 338 338 338
330 318 326 322 319 318 313 305 306 303 295 294 298 297 296 297 297 298 299 295 284 270 253 240 238 246 261 272 276 279 289 298 304 310 316 318 321 323 322 322 332 333 323 323 332 341 345 344 338 329 323 322 315 300 301 312 314 305 295 297 299 302 311 315 314 315 319 319 317 316 317 318 319 320 320 319 317 316 319 321 321 325 332 335 335 335 337
137 8 331 318 291 286 301 306 300 291 289 292 291 290 294 296 293 291 291 287 276 268 257 243 235 238 249 261 266 269 281 298 304 301 301 308 307 296 293 313 327 322 321 330 338 337 332 330 328 319 314 314 310 303 306 314 316 304 287 293 300 303 307 310 311 313 316 316 315 314 315 317 320 320 320 318 315 313 314 315 313 315 323 330 332 334 337
54 10 336 341 13 280 295 298 295 293 297 299 294 288 287 288 288 286 283 281 277 265 251 244 240 240 244 250 257 268 284 300 306 305 310 317 310 290 284 309 325 320 317 324 329 325 320 321 320 315 314 317 316 311 312 316 314 294 284 295 304 305 305 308 310 311 312 313 313 314 316 319 321 319 318 319 316 309 308 313 312 310 315 324 329 330 332
327 318 308 308 297 293 294 294 293 294 294 290 288 288 284 279 279 277 273 275 275 259 248 247 244 240 243 250 258 269 284 299 304 303 306 312 314 310 311 318 319 314 310 314 319 322 321 318 315 315 318 320 322 321 320 320 311 290 289 299 304 303 305 309 309 308 309 312 313 314 317 320 320 317 317 320 317 309 309 316 317 312 314 321 325 325 327
247 252 265 275 283 291 296 296 294 295 294 290 290 293 285 271 268 267 262 263 266 260 255 254 246 233 238 252 266 277 287 295 297 295 295 299 305 310 309 306 306 309 313 314 316 319 319 315 315 319 321 323 326 327 327 331 332 315 302 301 304 304 306 309 309 308 309 311 312 315 318 319 317 316 316 315 312 309 309 314 317 318 320 319 318 322 325
249 237 266 299 298 295 296 295 291 291 293 297 300 298 279 264 271 277 270 262 265 266 257 248 241 239 245 257 272 284 290 292 292 289 288 295 302 306 305 303 304 308 310 311 313 316 316 315 318 322 325 328 330 330 329 330 329 319 307 301 303 306 308 309 310 311 313 313 314 317 319 317 315 316 315 313 313 316 320 323 326 328 323 316 317 327 331
298 318 309 302 297 295 294 293 293 294 293 291 293 293 276 262 269 279 277 271 276 274 255 232 231 243 248 252 263 274 282 293 299 298 295 299 305 308 307 306 305 306 309 315 321 322 318 315 318 324 328 333 337 339 334 315 305 304 303 303 306 308 310 311 312 313 316 317 317 318 318 318 319 320 319 318 320 324 327 329 332 327 316 313 322 334 336
301 318 311 300 296 296 292 285 284 287 281 272 273 289 294 275 262 269 277 275 270 265 248 225 234 247 249 255 271 279 280 285 292 296 300 305 308 308 308 309 310 310 314 321 326 323 316 316 322 326 330 336 341 344 335 305 299 300 300 305 310 311 309 310 313 316 318 319 319 318 319 320 322 322 321 321 324 328 330 334 335 325 317 321 329 329 327
311 307 308 299 291 289 287 285 287 289 284 276 274 286 290 274 260 269 279 275 260 246 227 216 230 247 272 303 301 283 271 283 290 291 295 302 307 307 308 310 312 310 312 318 323 322 319 322 327 328 328 334 340 342 329 315 317 316 309 309 314 315 312 312 316 320 322 322 320 320 321 323 323 321 318 318 322 329 335 338 333 323 323 335 340 331 324
310 298 300 300 295 290 291 296 298 297 296 298 295 281 270 261 257 267 275 270 238 218 225 229 233 247 302 315 296 280 288 309 311 304 299 302 308 309 308 310 315 317 316 318 324 326 325 327 331 334 334 336 338 336 323 318 322 321 314 313 317 320 320 320 321 323 325 326 324 322 323 326 326 323 321 324 332 342 347 342 332 328 333 341 342 337 335
305 297 295 301 304 304 303 304 301 298 299 300 290 273 267 259 255 268 263 210 183 190 221 226 224 244 290 294 283 282 301 311 310 307 305 307 312 313 311 313 323 330 329 324 326 329 330 332 337 338 336 334 332 327 321 321 323 322 319 319 322 323 324 324 323 321 322 325 326 325 325 325 324 323 325 330 340 347 346 336 326 326 333 335 334 335 338
299 298 296 304 310 308 305 308 307 306 312 321 306 274 279 245 177 155 181 197 204 215 232 203 213 253 286 295 298 308 309 304 303 306 308 309 313 317 318 320 327 334 335 332 331 333 334 336 337 335 331 327 324 321 319 321 324 323 320 321 323 324 324 325 324 322 320 323 326 327 325 322 323 326 330 334 338 341 340 333 323 319 321 325 328 331 335